When you browse on this site, cookies collect data to enhance your experience and personalize the content and advertising you see.
Visit our Privacy Policy to learn more. By continuing to use the site, you agree to this use of cookies and data.
  • în România
  • Lista ţărilor
  • Pe 7 zile
  • Temperatura apei
  • Hartă satelitară
  • Meteo pe hartă
  • Widget-uri
  • user-avatar
    Intrare

    Meteo pe oră la Zbudovo

    Astăzi, 17 Ianuarie, Joi

    Timp Temperatura Precipitaţii Vânt Presiune Umiditate
    00:00 -7°C° 0 mm 3 m/s 732 mmHg 91%
    01:00 -7°C° 0 mm 3 m/s 733 mmHg 90%
    02:00 -9°C° 0 mm 4 m/s 733 mmHg 90%
    03:00 -8°C° 0 mm 3 m/s 733 mmHg 89%
    04:00 -9°C° 0 mm 3 m/s 733 mmHg 89%
    05:00 -9°C° 0 mm 3 m/s 733 mmHg 88%
    06:00 -10°C° 0 mm 3 m/s 733 mmHg 90%
    07:00 -12°C° 0 mm 3 m/s 732 mmHg 92%
    08:00 -13°C° 0 mm 3 m/s 732 mmHg 94%
    09:00 -12°C° 0.2 mm 4 m/s 731 mmHg 93%
    10:00 -11°C° 0.2 mm 4 m/s 731 mmHg 92%
    11:00 -11°C° 0.2 mm 5 m/s 730 mmHg 92%
    12:00 -10°C° 0.4 mm 5 m/s 729 mmHg 91%
    13:00 -8°C° 0.4 mm 5 m/s 728 mmHg 91%
    14:00 -7°C° 0.4 mm 5 m/s 727 mmHg 91%
    15:00 -5°C° 0.3 mm 6 m/s 727 mmHg 90%
    16:00 -4°C° 0.3 mm 6 m/s 726 mmHg 89%
    17:00 -2°C° 0.3 mm 6 m/s 726 mmHg 88%
    18:00 -2°C° 0.6 mm 6 m/s 725 mmHg 88%
    19:00 -2°C° 0.6 mm 6 m/s 724 mmHg 88%
    20:00 -2°C° 0.6 mm 6 m/s 724 mmHg 88%
    21:00 -2°C° 0.6 mm 6 m/s 723 mmHg 88%
    22:00 -2°C° 0.6 mm 6 m/s 723 mmHg 88%
    23:00 -1°C° 0.6 mm 5 m/s 723 mmHg 88%

    Mâine, 18 Ianuarie, Vineri

    Timp Temperatura Precipitaţii Vânt Presiune Umiditate
    00:00 -1°C° 0.4 mm 5 m/s 724 mmHg 88%
    01:00 -1°C° 0.4 mm 5 m/s 724 mmHg 88%
    02:00 -1°C° 0.4 mm 5 m/s 725 mmHg 88%
    03:00 -2°C° 0.1 mm 5 m/s 726 mmHg 87%
    04:00 -4°C° 0.1 mm 5 m/s 727 mmHg 86%
    05:00 -5°C° 0.1 mm 5 m/s 727 mmHg 85%
    06:00 -5°C° 0 mm 4 m/s 728 mmHg 86%
    07:00 -7°C° 0 mm 4 m/s 729 mmHg 86%
    08:00 -9°C° 0 mm 4 m/s 730 mmHg 87%
    09:00 -9°C° 0 mm 4 m/s 731 mmHg 87%
    10:00 -10°C° 0 mm 4 m/s 732 mmHg 87%
    11:00 -10°C° 0 mm 4 m/s 732 mmHg 88%
    12:00 -9°C° 0 mm 3 m/s 733 mmHg 88%
    13:00 -9°C° 0 mm 3 m/s 733 mmHg 88%
    14:00 -8°C° 0 mm 2 m/s 734 mmHg 89%
    15:00 -10°C° 0 mm 2 m/s 734 mmHg 90%
    16:00 -12°C° 0 mm 2 m/s 734 mmHg 92%
    17:00 -11°C° 0 mm 1 m/s 735 mmHg 94%
    18:00 -11°C° 0 mm 1 m/s 734 mmHg 94%
    19:00 -12°C° 0 mm 1 m/s 734 mmHg 95%
    20:00 -12°C° 0 mm 0 m/s 734 mmHg 95%
    21:00 -11°C° 0.1 mm 0 m/s 734 mmHg 95%
    22:00 -11°C° 0.1 mm 1 m/s 734 mmHg 95%
    23:00 -11°C° 0.1 mm 1 m/s 734 mmHg 96%

    Poimâine, 19 Ianuarie, Sâmbătă

    Timp Temperatura Precipitaţii Vânt Presiune Umiditate
    00:00 -11°C° 0 mm 1 m/s 734 mmHg 96%
    01:00 -12°C° 0 mm 1 m/s 734 mmHg 95%
    02:00 -14°C° 0 mm 2 m/s 735 mmHg 95%
    03:00 -14°C° 0.1 mm 2 m/s 735 mmHg 95%
    04:00 -13°C° 0.1 mm 2 m/s 735 mmHg 94%
    05:00 -14°C° 0.1 mm 3 m/s 736 mmHg 94%
    06:00 -14°C° 0 mm 3 m/s 736 mmHg 94%
    07:00 -14°C° 0 mm 3 m/s 737 mmHg 93%
    08:00 -15°C° 0 mm 3 m/s 737 mmHg 93%
    09:00 -14°C° 0 mm 3 m/s 738 mmHg 92%
    10:00 -14°C° 0 mm 3 m/s 738 mmHg 91%
    11:00 -13°C° 0 mm 3 m/s 738 mmHg 91%
    12:00 -13°C° 0.1 mm 3 m/s 739 mmHg 91%
    13:00 -10°C° 0.1 mm 2 m/s 739 mmHg 91%
    14:00 -10°C° 0.1 mm 2 m/s 739 mmHg 92%
    15:00 -10°C° 0.1 mm 2 m/s 739 mmHg 93%
    16:00 -9°C° 0.1 mm 1 m/s 739 mmHg 95%
    17:00 -9°C° 0.1 mm 1 m/s 740 mmHg 96%
    18:00 -9°C° 0.1 mm 1 m/s 740 mmHg 96%
    19:00 -10°C° 0.1 mm 1 m/s 740 mmHg 96%
    20:00 -10°C° 0.1 mm 1 m/s 740 mmHg 97%
    21:00 -10°C° 0 mm 1 m/s 740 mmHg 97%
    22:00 -11°C° 0 mm 1 m/s 740 mmHg 97%
    23:00 -13°C° 0 mm 2 m/s 741 mmHg 97%

    20 Ianuarie, Duminică

    Timp Temperatura Precipitaţii Vânt Presiune Umiditate
    00:00 -13°C° 0 mm 2 m/s 741 mmHg 97%
    01:00 -13°C° 0 mm 2 m/s 741 mmHg 96%
    02:00 -13°C° 0 mm 2 m/s 742 mmHg 96%
    03:00 -13°C° 0 mm 2 m/s 742 mmHg 97%
    04:00 -14°C° 0 mm 2 m/s 741 mmHg 97%
    05:00 -14°C° 0 mm 2 m/s 741 mmHg 97%
    06:00 -13°C° 0 mm 2 m/s 741 mmHg 97%
    07:00 -12°C° 0 mm 2 m/s 741 mmHg 97%
    08:00 -10°C° 0 mm 2 m/s 741 mmHg 96%
    09:00 -9°C° 0.1 mm 2 m/s 741 mmHg 95%
    10:00 -9°C° 0.1 mm 3 m/s 742 mmHg 93%
    11:00 -8°C° 0.1 mm 3 m/s 742 mmHg 91%
    12:00 -8°C° 0.1 mm 3 m/s 741 mmHg 91%
    13:00 -8°C° 0.1 mm 3 m/s 741 mmHg 90%
    14:00 -8°C° 0.1 mm 3 m/s 741 mmHg 90%
    15:00 -8°C° 0.1 mm 3 m/s 741 mmHg 91%
    16:00 -9°C° 0.1 mm 3 m/s 741 mmHg 92%
    17:00 -8°C° 0.1 mm 2 m/s 741 mmHg 93%
    18:00 -8°C° 0 mm 2 m/s 741 mmHg 93%
    19:00 -9°C° 0 mm 2 m/s 742 mmHg 94%
    20:00 -9°C° 0 mm 2 m/s 742 mmHg 95%
    21:00 -9°C° 0 mm 2 m/s 742 mmHg 95%
    22:00 -9°C° 0 mm 2 m/s 742 mmHg 95%
    23:00 -9°C° 0 mm 2 m/s 742 mmHg 96%

    21 Ianuarie, Luni

    Timp Temperatura Precipitaţii Vânt Presiune Umiditate
    00:00 -10°C° 0 mm 2 m/s 742 mmHg 96%
    01:00 -12°C° 0 mm 2 m/s 742 mmHg 96%
    02:00 -10°C° 0 mm 1 m/s 742 mmHg 96%
    03:00 -10°C° 0 mm 1 m/s 742 mmHg 97%
    04:00 -10°C° 0 mm 1 m/s 742 mmHg 97%
    05:00 -12°C° 0 mm 2 m/s 742 mmHg 97%
    06:00 -11°C° 0.1 mm 1 m/s 742 mmHg 97%
    07:00 -11°C° 0.1 mm 1 m/s 741 mmHg 97%
    08:00 -12°C° 0.1 mm 1 m/s 741 mmHg 97%
    09:00 -11°C° 0.1 mm 1 m/s 741 mmHg 97%
    10:00 -10°C° 0.1 mm 0 m/s 741 mmHg 96%
    11:00 -9°C° 0.1 mm 0 m/s 741 mmHg 96%
    12:00 -9°C° 0.1 mm 1 m/s 741 mmHg 95%
    13:00 -9°C° 0.1 mm 1 m/s 742 mmHg 95%
    14:00 -10°C° 0.1 mm 2 m/s 742 mmHg 94%
    15:00 -12°C° 0.1 mm 2 m/s 742 mmHg 94%
    16:00 -12°C° 0.1 mm 2 m/s 742 mmHg 95%
    17:00 -14°C° 0.1 mm 3 m/s 742 mmHg 95%
    18:00 -15°C° 0 mm 3 m/s 743 mmHg 95%
    19:00 -16°C° 0 mm 2 m/s 743 mmHg 96%
    20:00 -17°C° 0 mm 2 m/s 743 mmHg 97%
    21:00 -18°C° 0 mm 2 m/s 743 mmHg 97%
    22:00 -20°C° 0 mm 2 m/s 743 mmHg 98%
    23:00 -19°C° 0 mm 1 m/s 743 mmHg 99%

    22 Ianuarie, Marţi

    Timp Temperatura Precipitaţii Vânt Presiune Umiditate
    00:00 -19°C° 0 mm 1 m/s 743 mmHg 99%
    01:00 -20°C° 0 mm 1 m/s 743 mmHg 99%
    02:00 -20°C° 0 mm 1 m/s 743 mmHg 99%
    03:00 -20°C° 0 mm 0 m/s 743 mmHg 99%
    04:00 -20°C° 0 mm 0 m/s 743 mmHg 99%
    05:00 -20°C° 0 mm 0 m/s 743 mmHg 99%
    06:00 -21°C° 0 mm 0 m/s 743 mmHg 99%
    07:00 -21°C° 0 mm 0 m/s 743 mmHg 99%
    08:00 -21°C° 0 mm 0 m/s 744 mmHg 99%
    09:00 -19°C° 0 mm 0 m/s 744 mmHg 98%
    10:00 -18°C° 0 mm 0 m/s 744 mmHg 96%
    11:00 -16°C° 0 mm 0 m/s 744 mmHg 95%
    12:00 -16°C° 0 mm 0 m/s 744 mmHg 95%
    13:00 -16°C° 0 mm 0 m/s 744 mmHg 96%
    14:00 -15°C° 0 mm 0 m/s 745 mmHg 96%
    15:00 -16°C° 0 mm 0 m/s 745 mmHg 96%
    16:00 -17°C° 0 mm 0 m/s 745 mmHg 97%
    17:00 -18°C° 0 mm 0 m/s 745 mmHg 97%
    18:00 -18°C° 0 mm 1 m/s 745 mmHg 97%
    19:00 -18°C° 0 mm 1 m/s 745 mmHg 97%
    20:00 -18°C° 0 mm 1 m/s 745 mmHg 98%
    21:00 -18°C° 0 mm 1 m/s 746 mmHg 98%
    22:00 -19°C° 0 mm 1 m/s 746 mmHg 98%
    23:00 -19°C° 0 mm 1 m/s 746 mmHg 98%
    Arată mai mult